Weather History for Morganton, NC

Change the Weather History Date:

Saturday, December 1, 2012

  Actual Average (KHKY) Record (KHKY)
Temperature  
Mean Temperature 47 °F -  
Max Temperature 64 °F 52 °F 73 °F (2006)
Min Temperature 30 °F 33 °F 14 °F (1976)
Degree Days  
Heating Degree Days 18    
Moisture  
Dew Point 36 °F    
Average Humidity 79    
Maximum Humidity 100    
Minimum Humidity 37    
Precipitation  
Precipitation 0.00 in - - ()
Sea Level Pressure  
Sea Level Pressure 30.38 in    
Wind  
Wind Speed 1 mph (NNE)    
Max Wind Speed 6 mph    
Max Gust Speed -    
Visibility 8 miles    
Events      
Averages and records for this station are not official NWS values.
T = Trace of Precipitation, MM = Missing Value Source: NWS Daily Summary

Daily Weather History Graph

Daily Weather History Graph

Search for Another Location

Airport:

Trip Planner

Search our weather history database for the weather conditions in past years. The results will help you decide how hot, cold, wet, or windy it might be!

Date:

Astronomy

Dec. 01, 2012 Rise Set
Actual Time 7:18 AM EST 5:12 PM EST
Civil Twilight 6:50 AM EST 5:40 PM EST
Nautical Twilight 6:18 AM EST 6:12 PM EST
Astronomical Twilight 5:47 AM EST 6:43 PM EST
Moon 7:59 PM EST (12/1) 9:31 AM EST (12/1)
Length of Visible Light 10h 50m
Length of Day
9h 54m
Waning Gibbous, 92% of the Moon is Illuminated
Dec 1
Waning Gibbous
Dec 6
Last Quarter
Dec 13
New
Dec 20
First Quarter
Dec 28
Full

Hourly Weather History & Observations

Time (EST) Temp. Windchill Dew Point Humidity Pressure Visibility Wind Dir Wind Speed Gust Speed Precip Events Conditions
12:15 AM 33.8 °F - 32.0 °F 93% 30.35 in 7.0 mi Calm Calm - N/A   Clear
12:35 AM 32.0 °F 28.7 °F 32.0 °F 100% 30.35 in 7.0 mi WNW 3.5 mph - N/A   Clear
12:55 AM 33.8 °F - 32.0 °F 93% 30.35 in 7.0 mi Calm Calm - N/A   Clear
1:15 AM 32.0 °F - 32.0 °F 100% 30.35 in 5.0 mi Calm Calm - N/A   Clear
1:35 AM 32.0 °F - 30.2 °F 93% 30.34 in 4.0 mi Calm Calm - N/A   Clear
2:15 AM 32.0 °F - 32.0 °F 100% 30.35 in 5.0 mi Calm Calm - N/A   Clear
2:35 AM 32.0 °F - 30.2 °F 93% 30.35 in 5.0 mi Calm Calm - N/A   Scattered Clouds
2:55 AM 32.0 °F - 32.0 °F 100% 30.35 in 5.0 mi Calm Calm - N/A   Scattered Clouds
3:15 AM 32.0 °F - 32.0 °F 100% 30.36 in 5.0 mi Calm Calm - N/A   Clear
3:35 AM 30.2 °F - 30.2 °F 100% 30.35 in 4.0 mi Calm Calm - N/A   Clear
4:15 AM 30.2 °F - 30.2 °F 100% 30.35 in 5.0 mi Calm Calm - N/A   Clear
4:35 AM 32.0 °F - 30.2 °F 93% 30.35 in 5.0 mi Calm Calm - N/A   Clear
5:15 AM 32.0 °F - 30.2 °F 93% 30.36 in 5.0 mi Calm Calm - N/A   Clear
5:35 AM 30.2 °F - 30.2 °F 100% 30.37 in 5.0 mi Calm Calm - N/A   Clear
6:15 AM 30.2 °F - 30.2 °F 100% 30.39 in 5.0 mi Calm Calm - N/A   Clear
6:35 AM 30.2 °F - 30.2 °F 100% 30.39 in 5.0 mi Calm Calm - N/A   Clear
6:55 AM 30.2 °F 25.4 °F 30.2 °F 100% 30.40 in 5.0 mi NNW 4.6 mph - N/A   Clear
7:15 AM 30.2 °F 26.7 °F 30.2 °F 100% 30.41 in 4.0 mi NW 3.5 mph - N/A   Clear
7:35 AM 32.0 °F - 32.0 °F 100% 30.41 in 4.0 mi Calm Calm - N/A   Clear
8:15 AM 32.0 °F - 32.0 °F 100% 30.43 in 4.0 mi Calm Calm - N/A   Clear
8:35 AM 33.8 °F - 33.8 °F 100% 30.43 in 3.0 mi Calm Calm - N/A   Clear
8:55 AM 37.4 °F - 33.8 °F 87% 30.44 in 5.0 mi Calm Calm - N/A   Clear
9:15 AM 39.2 °F - 35.6 °F 87% 30.44 in 7.0 mi Calm Calm - N/A   Clear
9:35 AM 41.0 °F - 35.6 °F 81% 30.45 in 10.0 mi Calm Calm - N/A   Clear
9:55 AM 42.8 °F - 35.6 °F 76% 30.45 in 10.0 mi Calm Calm - N/A   Clear
10:15 AM 46.4 °F - 37.4 °F 71% 30.44 in 10.0 mi Calm Calm - N/A   Clear
10:35 AM 48.2 °F - 37.4 °F 66% 30.44 in 10.0 mi Calm Calm - N/A   Clear
10:55 AM 50.0 °F - 37.4 °F 62% 30.44 in 10.0 mi Calm Calm - N/A   Clear
11:15 AM 51.8 °F - 37.4 °F 58% 30.43 in 10.0 mi West 3.5 mph - N/A   Clear
11:35 AM 53.6 °F - 37.4 °F 54% 30.42 in 10.0 mi Calm Calm - N/A   Clear
11:55 AM 55.4 °F - 37.4 °F 51% 30.41 in 10.0 mi Calm Calm - N/A   Clear
12:15 PM 59.0 °F - 37.4 °F 45% 30.40 in 10.0 mi Calm Calm - N/A   Clear
12:35 PM 60.8 °F - 37.4 °F 42% 30.39 in 10.0 mi Calm Calm - N/A   Clear
12:55 PM 60.8 °F - 37.4 °F 42% 30.38 in 10.0 mi Calm Calm - N/A   Clear
1:15 PM 62.6 °F - 37.4 °F 39% 30.37 in 10.0 mi ENE 3.5 mph - N/A   Clear
1:35 PM 62.6 °F - 37.4 °F 39% 30.37 in 10.0 mi Calm Calm - N/A   Clear
1:55 PM 62.6 °F - 37.4 °F 39% 30.36 in 10.0 mi SW 3.5 mph - N/A   Clear
2:15 PM 62.6 °F - 37.4 °F 39% 30.36 in 10.0 mi Calm Calm - N/A   Clear
2:35 PM 64.4 °F - 37.4 °F 37% 30.35 in 10.0 mi SE 5.8 mph - N/A   Clear
2:55 PM 64.4 °F - 37.4 °F 37% 30.35 in 10.0 mi East 4.6 mph - N/A   Clear
3:15 PM 64.4 °F - 39.2 °F 40% 30.35 in 10.0 mi East 4.6 mph - N/A   Clear
3:35 PM 62.6 °F - 41.0 °F 45% 30.35 in 10.0 mi ESE 3.5 mph - N/A   Clear
4:15 PM 62.6 °F - 41.0 °F 45% 30.35 in 10.0 mi ESE 4.6 mph - N/A   Clear
4:35 PM 60.8 °F - 41.0 °F 48% 30.35 in 10.0 mi Calm Calm - N/A   Clear
4:55 PM 59.0 °F - 42.8 °F 55% 30.35 in 10.0 mi Calm Calm - N/A   Clear
5:15 PM 51.8 °F - 44.6 °F 76% 30.36 in 10.0 mi Calm Calm - N/A   Clear
5:35 PM 50.0 °F - 42.8 °F 76% 30.36 in 10.0 mi ESE 3.5 mph - N/A   Clear
5:55 PM 48.2 °F - 42.8 °F 82% 30.36 in 10.0 mi Calm Calm - N/A   Clear
6:15 PM 46.4 °F - 41.0 °F 81% 30.36 in 10.0 mi Calm Calm - N/A   Clear
6:55 PM 44.6 °F - 41.0 °F 87% 30.37 in 10.0 mi Calm Calm - N/A   Clear
7:15 PM 42.8 °F - 41.0 °F 93% 30.37 in 10.0 mi Calm Calm - N/A   Clear
7:35 PM 42.8 °F - 41.0 °F 93% 30.37 in 10.0 mi Calm Calm - N/A   Clear
7:55 PM 44.6 °F 43.1 °F 39.2 °F 81% 30.37 in 10.0 mi NW 3.5 mph - N/A   Clear
8:15 PM 42.8 °F - 39.2 °F 87% 30.38 in 10.0 mi Calm Calm - N/A   Clear
8:35 PM 41.0 °F - 39.2 °F 93% 30.38 in 10.0 mi Calm Calm - N/A   Clear
8:55 PM 41.0 °F - 37.4 °F 87% 30.37 in 10.0 mi Calm Calm - N/A   Clear
9:15 PM 42.8 °F 41.1 °F 41.0 °F 93% 30.38 in 10.0 mi NNW 3.5 mph - N/A   Clear
9:35 PM 41.0 °F - 39.2 °F 93% 30.38 in 10.0 mi Calm Calm - N/A   Clear
9:55 PM 42.8 °F 41.1 °F 41.0 °F 93% 30.38 in 10.0 mi NNW 3.5 mph - N/A   Clear
10:15 PM 42.8 °F - 39.2 °F 87% 30.38 in 10.0 mi Calm Calm - N/A   Clear
10:35 PM 39.2 °F - 37.4 °F 93% 30.38 in 7.0 mi Calm Calm - N/A   Clear
10:55 PM 37.4 °F - 37.4 °F 100% 30.39 in 7.0 mi Calm Calm - N/A   Clear
11:15 PM 39.2 °F 35.9 °F 39.2 °F 100% 30.38 in 7.0 mi North 4.6 mph - N/A   Clear
11:35 PM 39.2 °F - 37.4 °F 93% 30.40 in 7.0 mi Calm Calm - N/A   Clear
11:55 PM 35.6 °F - 35.6 °F 100% 30.39 in 5.0 mi Calm Calm - N/A   Clear